Szolnok, Hungary

5:25 AM CEST on April 25, 2018 (GMT +0200)
Szolnok

Weather History for LHSN - November, 2013

Change the Weather History Date:

Tuesday, November 26, 2013

  Actual Average (LHBP) Record (LHBP)
Temperature  
Mean Temperature 36 °F -  
Max Temperature 39 °F 42 °F 53 °F (2002)
Min Temperature 32 °F 31 °F 23 °F (2004)
Degree Days  
Heating Degree Days 29    
Moisture  
Dew Point 26 °F    
Average Humidity 70    
Maximum Humidity 81    
Minimum Humidity 56    
Precipitation  
Precipitation 0.00 in - - ()
Sea Level Pressure  
Sea Level Pressure 30.11 in    
Wind  
Wind Speed 9 mph ()    
Max Wind Speed 20 mph    
Max Gust Speed 29 mph    
Averages and records for this station are not official NWS values.
T = Trace of Precipitation, MM = Missing Value Source: Averaged Metar Reports

Daily Weather History Graph

Daily Weather History Graph

Search for Another Location

Airport or City:

Astronomy

Nov. 26, 2013 Rise Set
Actual Time 6:58 AM CET 3:54 PM CET
Civil Twilight 6:23 AM CET 4:28 PM CET
Nautical Twilight 5:45 AM CET 5:06 PM CET
Astronomical Twilight 5:09 AM CET 5:42 PM CET
Moon No Moon Rise 12:16 PM CET (11/26)
Length of Visible Light 10h 04m
Length of Day
8h 56m
Last Quarter, 44% of the Moon is Illuminated
Nov 26
Last Quarter
Dec 3
New
Dec 9
First Quarter
Dec 17
Full
Dec 25
Last Quarter

Hourly Weather History & Observations

Time (CET) Temp. Windchill Dew Point Humidity Pressure Visibility Wind Dir Wind Speed Gust Speed Precip Events Conditions
12:15 AM 35.6 °F 30.0 °F 28.4 °F 75% 30.04 in - North 6.7 mph - N/A   Clear
12:45 AM 33.8 °F 27.9 °F 28.4 °F 81% 30.04 in - North 6.7 mph - N/A   Clear
1:15 AM 33.8 °F 27.9 °F 28.4 °F 81% 30.04 in - NNW 6.7 mph - N/A   Clear
1:45 AM 33.8 °F 29.7 °F 28.4 °F 81% 30.04 in - North 4.5 mph - N/A   Clear
2:15 AM 33.8 °F 27.9 °F 28.4 °F 81% 30.04 in - North 6.7 mph - N/A   Clear
2:45 AM 33.8 °F 27.9 °F 28.4 °F 81% 30.04 in - North 6.7 mph - N/A   Clear
3:15 AM 33.8 °F 27.9 °F 28.4 °F 81% 30.04 in - NNW 6.7 mph - N/A   Clear
3:45 AM 33.8 °F 29.7 °F 28.4 °F 81% 30.04 in - NNW 4.5 mph - N/A   Clear
4:15 AM 33.8 °F 27.9 °F 28.4 °F 81% 30.06 in - NW 6.7 mph - N/A   Clear
4:45 AM 33.8 °F 29.7 °F 28.4 °F 81% 30.06 in - NW 4.5 mph - N/A   Clear
5:15 AM 33.8 °F 29.7 °F 28.4 °F 81% 30.06 in - NNW 4.5 mph - N/A   Clear
5:45 AM - - - N/A% - - North 8.9 mph - N/A   Clear
6:15 AM 33.8 °F 27.9 °F 28.4 °F 81% 30.06 in - North 6.7 mph - N/A   Clear
6:45 AM 33.8 °F 27.9 °F 28.4 °F 81% 30.09 in - North 6.7 mph - N/A   Clear
7:15 AM 33.8 °F 27.9 °F 26.6 °F 75% 30.09 in - North 6.7 mph - N/A   Clear
7:45 AM 33.8 °F 27.9 °F 28.4 °F 81% 30.09 in - North 6.7 mph - N/A   Clear
8:15 AM 33.8 °F 27.9 °F 28.4 °F 81% 30.12 in - North 6.7 mph - N/A   Clear
8:45 AM - - - N/A% - - North 8.9 mph - N/A   Clear
9:15 AM 35.6 °F 30.0 °F 28.4 °F 75% 30.12 in - North 6.7 mph - N/A   Clear
9:45 AM 35.6 °F 30.0 °F 30.2 °F 81% 30.12 in - North 6.7 mph - N/A   Clear
10:15 AM 35.6 °F 28.7 °F 30.2 °F 81% 30.12 in - North 8.9 mph - N/A   Clear
10:45 AM 37.4 °F 29.9 °F 28.4 °F 70% 30.12 in - NNE 11.2 mph - N/A   Clear
11:15 AM 37.4 °F 29.1 °F 26.6 °F 65% 30.12 in - NNE 13.4 mph - N/A   Clear
11:45 AM - - - N/A% - - NNE 8.9 mph - N/A   Clear
12:15 PM 37.4 °F 29.1 °F 26.6 °F 65% 30.12 in - NNE 13.4 mph - N/A   Clear
12:26 PM 37.4 °F 29.1 °F 24.8 °F 60% 30.12 in - NNE 13.4 mph 26.8 mph N/A   Clear
12:45 PM 37.4 °F 28.3 °F 24.8 °F 60% 30.12 in - NNE 15.7 mph - N/A   Clear
1:15 PM 37.4 °F 28.3 °F 24.8 °F 60% 30.12 in - NNE 15.7 mph - N/A   Clear
1:45 PM 39.2 °F 30.0 °F 24.8 °F 56% 30.12 in - NNE 17.9 mph - N/A   Clear
2:15 PM 37.4 °F 27.6 °F 24.8 °F 60% 30.09 in - NNE 17.9 mph 29.1 mph N/A   Clear
2:45 PM 37.4 °F 27.6 °F 24.8 °F 60% 30.12 in - NE 17.9 mph - N/A   Clear
3:15 PM 37.4 °F 27.6 °F 23.0 °F 56% 30.12 in - NE 17.9 mph - N/A   Clear
3:45 PM 37.4 °F 27.0 °F 24.8 °F 60% 30.12 in - NE 20.1 mph - N/A   Clear
4:15 PM 37.4 °F 27.6 °F 23.0 °F 56% 30.12 in - NE 17.9 mph - N/A   Clear
4:45 PM 35.6 °F 26.0 °F 21.2 °F 56% 30.12 in - NNE 15.7 mph - N/A   Clear
5:15 PM 35.6 °F 26.0 °F 23.0 °F 60% 30.12 in - NNE 15.7 mph - N/A   Clear
5:45 PM 35.6 °F 25.3 °F 23.0 °F 60% 30.12 in - NNE 17.9 mph - N/A   Clear
6:15 PM 35.6 °F 26.0 °F 23.0 °F 60% 30.12 in - NNE 15.7 mph - N/A   Clear
6:45 PM 35.6 °F 26.0 °F 23.0 °F 60% 30.15 in - NNE 15.7 mph - N/A   Clear
7:15 PM 35.6 °F 26.0 °F 24.8 °F 65% 30.15 in - NNE 15.7 mph - N/A   Clear
7:45 PM 33.8 °F 23.7 °F 24.8 °F 70% 30.15 in - NNE 15.7 mph - N/A   Clear
8:15 PM 33.8 °F 24.5 °F 24.8 °F 70% 30.15 in - NNE 13.4 mph - N/A   Clear
8:45 PM 33.8 °F 23.7 °F 24.8 °F 70% 30.15 in - NNE 15.7 mph - N/A   Clear
9:15 PM 33.8 °F 23.7 °F 24.8 °F 70% 30.18 in - NE 15.7 mph - N/A   Clear
9:45 PM 33.8 °F 23.0 °F 24.8 °F 70% 30.18 in - NE 17.9 mph - N/A   Clear
10:15 PM 33.8 °F 23.0 °F 23.0 °F 65% 30.18 in - NNE 17.9 mph - N/A   Clear
10:30 PM 33.8 °F 23.7 °F 23.0 °F 65% 30.18 in - NNE 15.7 mph 26.8 mph N/A   Clear
10:45 PM 33.8 °F 23.7 °F 23.0 °F 65% 30.18 in - NNE 15.7 mph - N/A   Clear
11:15 PM 33.8 °F 23.0 °F 23.0 °F 65% 30.18 in - NE 17.9 mph - N/A   Clear
11:45 PM 32.0 °F 20.6 °F 23.0 °F 69% 30.18 in - NNE 17.9 mph - N/A   Clear